QPF
0.00 0.00 0.00 0.00 0.01 0.01 0.01 0.01 0.00 0.00 0.00 0.00 0.00 0.00 0.00 0.00 0.00 0.00 0.00 0.00 0.00 0.00 0.00 0.00 0.00 0.00 0.00 0.00 0.00 0.00 0.00 0.00 0.00 0.00 0.00 0.00 0.00 0.00 0.00 0.00 0.00 0.00
0.00 0.00 0.00 0.00 0.00 0.00 0.00 0.00 0.00 0.00 0.00 0.00 0.00 0.00 0.00 0.00 0.00 0.00 0.00 0.00 0.00 0.00 0.00 0.00 0.00 0.00 0.00 0.00 0.00 0.00 0.00 0.00 0.00 0.00 0.00 0.00 0.00 0.00 0.00 0.00 0.00 0.00
0.00 0.00 0.00 0.00 0.00 0.00 0.00 0.00 0.00 0.00 0.00 0.00 0.00 0.00 0.00 0.00 0.00 0.00 0.00 0.00 0.00 0.00 0.00 0.00 0.00 0.00 0.00 0.00 0.00 0.00 0.00 0.00 0.00 0.00 0.01 0.00 0.00 0.00 0.00 0.00 0.00 0.00
0.00 0.00 0.00 0.00 0.00 0.00 0.00 0.00 0.00 0.00 0.00 0.00 0.00 0.00 0.00 0.00 0.00 0.00 0.00 0.00 0.00 0.00 0.00 0.00 0.00 0.00 0.00 0.00 0.00 0.00 0.00 0.00 0.00 0.00 0.00 0.01 0.00 0.00 0.00 0.00 0.01 0.00
0.00 0.00 0.00 0.00 0.00 0.00 0.00 0.00 0.00 0.00 0.00 0.00 0.00 0.00 0.00 0.00 0.00 0.00 0.00 0.00 0.00 0.00 0.00 0.00 0.01 0.01 0.01 0.01 0.01 0.01 0.00 0.00 0.00 0.00 0.01 0.00 0.00 0.00 0.00 0.02 0.01 0.01
0.00 0.00 0.00 0.00 0.00 0.00 0.00 0.00 0.00 0.00 0.00 0.00 0.00 0.00 0.00 0.00 0.00 0.00 0.00 0.00 0.00 0.00 0.00 0.00 0.01 0.01 0.01 0.01 0.02 0.01 0.02 0.01 0.01 0.01 0.01 0.01 0.01 0.01 0.01 0.02 0.02 0.01
0.00 0.00 0.00 0.00 0.00 0.00 0.00 0.00 0.00 0.00 0.00 0.00 0.00 0.00 0.00 0.00 0.00 0.00 0.00 0.00 0.00 0.00 0.00 0.00 0.00 0.00 0.01 0.01 0.02 0.02 0.02 0.01 0.01 0.01 0.01 0.00 0.01 0.01 0.01 0.01 0.01 0.00
0.00 0.00 0.00 0.00 0.00 0.00 0.00 0.00 0.00 0.00 0.00 0.00 0.00 0.00 0.00 0.00 0.00 0.00 0.00 0.00 0.00 0.00 0.00 0.00 0.01 0.02 0.02 0.02 0.02 0.02 0.02 0.01 0.01 0.00 0.00 0.00 0.00 0.00 0.00 0.00 0.00 0.00
0.00 0.00 0.00 0.00 0.00 0.00 0.00 0.00 0.00 0.00 0.00 0.00 0.00 0.00 0.00 0.00 0.00 0.00 0.00 0.00 0.00 0.00 0.00 0.02 0.02 0.01 0.01 0.01 0.02 0.04 0.04 0.03 0.02 0.01 0.00 0.00 0.00 0.00 0.01 0.00 0.01 0.00
0.00 0.00 0.00 0.00 0.00 0.00 0.00 0.00 0.00 0.00 0.00 0.00 0.00 0.00 0.00 0.00 0.00 0.00 0.00 0.00 0.00 0.01 0.02 0.01 0.01 0.01 0.01 0.01 0.01 0.02 0.03 0.05 0.03 0.02 0.01 0.01 0.01 0.02 0.01 0.01 0.00 0.00
0.00 0.00 0.00 0.00 0.00 0.00 0.00 0.00 0.00 0.00 0.00 0.00 0.00 0.00 0.00 0.00 0.00 0.00 0.00 0.00 0.01 0.01 0.00 0.00 0.00 0.00 0.00 0.00 0.00 0.01 0.01 0.01 0.02 0.04 0.05 0.03 0.02 0.02 0.02 0.01 0.01 0.00
0.00 0.00 0.00 0.00 0.00 0.00 0.00 0.00 0.00 0.00 0.00 0.00 0.00 0.00 0.00 0.00 0.00 0.00 0.00 0.00 0.00 0.00 0.00 0.00 0.00 0.00 0.00 0.00 0.00 0.00 0.01 0.01 0.01 0.01 0.02 0.04 0.04 0.02 0.01 0.01 0.01 0.00
0.00 0.00 0.00 0.00 0.00 0.00 0.00 0.00 0.00 0.00 0.00 0.00 0.00 0.00 0.00 0.00 0.00 0.00 0.00 0.00 0.00 0.00 0.00 0.00 0.00 0.00 0.00 0.00 0.00 0.00 0.01 0.01 0.01 0.00 0.01 0.01 0.01 0.02 0.01 0.00 0.00 0.00
0.00 0.00 0.01 0.01 0.01 0.01 0.01 0.00 0.00 0.00 0.00 0.00 0.00 0.00 0.00 0.00 0.00 0.00 0.00 0.00 0.00 0.00 0.00 0.00 0.00 0.00 0.00 0.00 0.00 0.00 0.00 0.01 0.01 0.01 0.01 0.01 0.01 0.00 0.00 0.00 0.00 0.00
0.01 0.01 0.01 0.01 0.01 0.01 0.01 0.01 0.01 0.00 0.00 0.00 0.00 0.00 0.00 0.00 0.00 0.00 0.00 0.00 0.00 0.00 0.00 0.00 0.00 0.00 0.00 0.00 0.00 0.00 0.00 0.01 0.01 0.01 0.01 0.01 0.01 0.00 0.00 0.00 0.00 0.00
0.01 0.01 0.01 0.02 0.02 0.02 0.01 0.01 0.01 0.01 0.01 0.01 0.01 0.00 0.00 0.00 0.00 0.00 0.00 0.00 0.00 0.00 0.00 0.00 0.00 0.00 0.00 0.00 0.00 0.00 0.00 0.00 0.01 0.01 0.01 0.00 0.00 0.00 0.00 0.00 0.00 0.00
0.01 0.01 0.02 0.02 0.02 0.02 0.02 0.02 0.01 0.01 0.01 0.01 0.01 0.01 0.01 0.01 0.01 0.01 0.00 0.00 0.00 0.00 0.00 0.00 0.00 0.00 0.00 0.00 0.00 0.00 0.00 0.00 0.00 0.01 0.01 0.01 0.00 0.00 0.00 0.00 0.00 0.00
0.01 0.02 0.02 0.02 0.02 0.02 0.02 0.02 0.02 0.02 0.02 0.02 0.02 0.01 0.01 0.01 0.01 0.01 0.01 0.00 0.00 0.00 0.00 0.00 0.00 0.00 0.00 0.00 0.00 0.00 0.00 0.00 0.00 0.00 0.00 0.00 0.00 0.00 0.00 0.00 0.00 0.00
0.02 0.02 0.02 0.02 0.03 0.03 0.03 0.02 0.02 0.02 0.02 0.02 0.02 0.02 0.02 0.01 0.01 0.01 0.01 0.01 0.01 0.01 0.01 0.01 0.00 0.00 0.00 0.00 0.00 0.00 0.00 0.00 0.00 0.00 0.00 0.00 0.00 0.00 0.00 0.00 0.00 0.00
0.02 0.02 0.02 0.02 0.02 0.03 0.03 0.03 0.02 0.02 0.02 0.02 0.02 0.02 0.02 0.02 0.02 0.02 0.02 0.02 0.03 0.03 0.03 0.02 0.01 0.01 0.00 0.00 0.00 0.00 0.00 0.00 0.00 0.00 0.00 0.00 0.00 0.00 0.00 0.00 0.00 0.00
0.02 0.02 0.02 0.02 0.02 0.03 0.03 0.03 0.03 0.02 0.02 0.03 0.03 0.03 0.03 0.03 0.03 0.03 0.03 0.03 0.02 0.02 0.02 0.03 0.02 0.02 0.02 0.02 0.02 0.01 0.01 0.00 0.00 0.00 0.00 0.00 0.00 0.00 0.00 0.00 0.00 0.00
0.02 0.02 0.02 0.02 0.02 0.02 0.02 0.03 0.03 0.03 0.03 0.03 0.03 0.03 0.02 0.02 0.01 0.02 0.02 0.02 0.01 0.01 0.01 0.03 0.03 0.03 0.04 0.03 0.03 0.04 0.07 0.05 0.02 0.01 0.00 0.00 0.00 0.00 0.00 0.00 0.00 0.00
0.01 0.02 0.02 0.02 0.02 0.02 0.02 0.02 0.02 0.02 0.02 0.02 0.02 0.01 0.01 0.01 0.01 0.01 0.01 0.01 0.00 0.00 0.00 0.00 0.01 0.02 0.03 0.06 0.08 0.07 0.14 0.21 0.13 0.05 0.02 0.02 0.02 0.01 0.00 0.00 0.00 0.00
0.01 0.01 0.01 0.02 0.02 0.02 0.01 0.01 0.01 0.01 0.01 0.01 0.01 0.01 0.01 0.01 0.01 0.01 0.01 0.01 0.01 0.00 0.00 0.00 0.00 0.00 0.00 0.00 0.01 0.07 0.05 0.04 0.05 0.06 0.04 0.02 0.01 0.01 0.01 0.01 0.00 0.00
0.01 0.01 0.01 0.02 0.02 0.02 0.02 0.02 0.02 0.02 0.01 0.01 0.02 0.01 0.01 0.01 0.01 0.01 0.00 0.00 0.00 0.00 0.00 0.00 0.00 0.00 0.00 0.00 0.01 0.03 0.01 0.00 0.01 0.03 0.02 0.03 0.03 0.03 0.03 0.02 0.01 0.01
0.01 0.01 0.01 0.01 0.02 0.02 0.02 0.02 0.01 0.01 0.01 0.02 0.01 0.01 0.01 0.00 0.00 0.00 0.00 0.00 0.00 0.00 0.00 0.00 0.00 0.00 0.00 0.00 0.00 0.00 0.00 0.00 0.00 0.00 0.01 0.01 0.01 0.01 0.01 0.01 0.01 0.00
MSLP
1022.47 1022.39 1022.27 1022.07 1021.79 1021.63 1021.39 1021.03 1020.59 1020.39 1020.27 1020.15 1019.95 1019.67 1019.55 1019.35 1019.27 1019.15 1018.87 1018.59 1018.43 1018.31 1018.23 1018.11 1017.99 1017.83 1017.63 1017.47 1017.27 1017.07 1016.75 1016.39 1016.07 1015.75 1015.51 1015.39 1015.23 1015.15 1015.07 1015.03 1014.91 1014.83
1022.35 1022.23 1021.95 1021.67 1021.39 1021.19 1021.03 1020.99 1020.87 1020.67 1020.39 1020.23 1019.95 1019.71 1019.43 1019.27 1018.95 1018.71 1018.43 1018.35 1018.23 1018.03 1017.95 1017.79 1017.55 1017.27 1017.03 1016.83 1016.63 1016.47 1016.15 1015.83 1015.55 1015.31 1015.15 1015.03 1014.91 1014.83 1014.75 1014.63 1014.51 1014.43
1022.15 1021.95 1021.59 1021.27 1021.11 1021.19 1021.11 1020.95 1020.75 1020.47 1020.19 1019.83 1019.59 1019.35 1018.99 1018.71 1018.35 1018.31 1018.19 1018.03 1017.87 1017.67 1017.47 1017.27 1016.95 1016.67 1016.35 1016.07 1015.91 1015.75 1015.47 1015.19 1014.95 1014.83 1014.79 1014.59 1014.47 1014.43 1014.35 1014.23 1014.11 1014.03
1021.87 1021.51 1021.35 1021.27 1021.23 1021.07 1020.91 1020.71 1020.43 1020.19 1019.83 1019.51 1019.27 1019.07 1018.91 1018.63 1018.43 1018.27 1018.07 1017.79 1017.47 1017.19 1016.91 1016.67 1016.39 1016.11 1015.87 1015.63 1015.39 1015.03 1014.75 1014.55 1014.39 1014.39 1014.27 1014.03 1013.91 1013.91 1013.79 1013.75 1013.67 1013.59
1021.51 1021.15 1021.11 1021.19 1021.03 1020.87 1020.71 1020.51 1020.11 1019.83 1019.71 1019.55 1019.35 1019.15 1018.95 1018.75 1018.63 1018.39 1018.11 1017.87 1017.55 1017.15 1016.91 1016.59 1016.35 1016.07 1015.63 1015.11 1014.75 1014.31 1013.91 1013.75 1013.71 1013.71 1013.63 1013.47 1013.31 1013.27 1013.23 1013.27 1013.23 1013.19
1021.19 1021.07 1020.99 1020.87 1020.79 1020.63 1020.47 1020.19 1019.83 1019.71 1019.51 1019.35 1019.19 1019.03 1018.83 1018.67 1018.43 1018.15 1017.87 1017.55 1017.23 1016.91 1016.55 1016.35 1016.11 1015.71 1015.19 1014.63 1014.23 1013.75 1013.27 1012.99 1012.99 1013.03 1012.87 1012.83 1012.75 1012.71 1012.75 1012.79 1012.87 1012.79
1021.23 1021.07 1020.91 1020.75 1020.51 1020.35 1020.11 1019.95 1019.75 1019.47 1019.31 1019.11 1018.95 1018.79 1018.63 1018.35 1018.07 1017.75 1017.47 1017.19 1016.91 1016.59 1016.27 1015.99 1015.67 1015.19 1014.71 1014.19 1013.75 1013.35 1012.79 1012.55 1012.51 1012.43 1012.31 1012.31 1012.27 1012.23 1012.27 1012.35 1012.35 1012.35
1021.39 1021.07 1020.83 1020.51 1020.27 1020.07 1019.87 1019.63 1019.39 1019.23 1019.03 1018.79 1018.63 1018.39 1018.23 1017.91 1017.63 1017.35 1017.03 1016.83 1016.55 1016.27 1015.95 1015.51 1015.11 1014.67 1014.19 1013.91 1013.71 1013.43 1012.91 1012.27 1011.99 1011.91 1011.91 1011.91 1011.95 1011.91 1011.91 1011.95 1011.91 1011.91
1021.27 1020.95 1020.63 1020.35 1020.15 1019.83 1019.59 1019.35 1019.11 1018.87 1018.67 1018.43 1018.19 1017.95 1017.67 1017.43 1017.11 1016.83 1016.55 1016.31 1015.99 1015.67 1015.31 1014.91 1014.51 1014.27 1013.99 1013.75 1013.55 1013.31 1012.99 1012.63 1012.03 1011.51 1011.39 1011.43 1011.51 1011.55 1011.55 1011.55 1011.59 1011.59
1021.11 1020.75 1020.47 1020.19 1019.91 1019.59 1019.31 1019.03 1018.79 1018.51 1018.27 1018.03 1017.79 1017.51 1017.23 1016.87 1016.67 1016.39 1016.23 1015.99 1015.63 1015.03 1014.63 1014.47 1014.39 1014.11 1013.87 1013.59 1013.35 1013.11 1012.87 1012.59 1012.27 1011.63 1011.11 1010.91 1010.95 1011.03 1011.15 1011.19 1011.19 1011.27
1020.99 1020.63 1020.27 1019.91 1019.59 1019.27 1018.99 1018.67 1018.43 1018.15 1017.91 1017.67 1017.47 1017.23 1016.95 1016.75 1016.55 1016.35 1016.15 1015.87 1015.47 1015.03 1014.75 1014.55 1014.35 1014.15 1013.83 1013.47 1013.15 1012.87 1012.67 1012.39 1012.07 1011.75 1011.11 1010.59 1010.47 1010.51 1010.59 1010.71 1010.83 1010.87
1020.87 1020.47 1020.03 1019.67 1019.35 1018.99 1018.67 1018.35 1018.03 1017.75 1017.47 1017.23 1017.07 1016.83 1016.63 1016.43 1016.19 1016.03 1015.87 1015.67 1015.43 1015.15 1014.87 1014.55 1014.27 1013.99 1013.71 1013.31 1012.99 1012.67 1012.39 1012.15 1011.91 1011.59 1011.19 1010.63 1010.27 1010.15 1010.27 1010.39 1010.55 1010.63
1020.75 1020.31 1019.91 1019.55 1019.15 1018.75 1018.39 1018.07 1017.75 1017.43 1017.19 1016.91 1016.67 1016.51 1016.27 1016.03 1015.83 1015.63 1015.43 1015.27 1014.99 1014.75 1014.51 1014.27 1013.99 1013.71 1013.47 1013.11 1012.71 1012.39 1012.15 1011.95 1011.71 1011.39 1011.03 1010.71 1010.39 1010.23 1010.15 1010.23 1010.31 1010.39
1020.63 1020.19 1019.87 1019.47 1019.07 1018.71 1018.31 1017.95 1017.59 1017.27 1016.99 1016.67 1016.43 1016.15 1015.91 1015.67 1015.47 1015.23 1014.95 1014.75 1014.51 1014.31 1014.07 1013.83 1013.59 1013.35 1013.07 1012.83 1012.55 1012.23 1012.03 1011.79 1011.55 1011.27 1010.95 1010.63 1010.31 1010.15 1010.11 1010.15 1010.19 1010.23
1020.55 1020.19 1019.83 1019.43 1019.03 1018.63 1018.23 1017.83 1017.47 1017.11 1016.75 1016.43 1016.11 1015.83 1015.51 1015.27 1014.99 1014.79 1014.55 1014.27 1013.99 1013.79 1013.55 1013.31 1013.15 1012.87 1012.63 1012.39 1012.23 1011.95 1011.83 1011.63 1011.31 1011.03 1010.79 1010.51 1010.23 1010.03 1009.99 1010.03 1010.03 1010.03
1020.63 1020.23 1019.79 1019.39 1018.95 1018.55 1018.11 1017.71 1017.31 1016.91 1016.55 1016.19 1015.83 1015.51 1015.19 1014.87 1014.63 1014.35 1014.11 1013.87 1013.63 1013.31 1013.07 1012.83 1012.59 1012.31 1011.99 1011.63 1011.39 1011.31 1011.23 1011.07 1010.87 1010.63 1010.43 1010.19 1010.03 1009.87 1009.79 1009.79 1009.75 1009.71
1020.67 1020.19 1019.75 1019.31 1018.87 1018.43 1017.99 1017.59 1017.15 1016.75 1016.35 1015.91 1015.55 1015.15 1014.79 1014.47 1014.15 1013.87 1013.59 1013.31 1013.03 1012.79 1012.47 1012.19 1011.91 1011.63 1011.27 1010.95 1010.63 1010.39 1010.39 1010.35 1010.31 1010.11 1009.95 1009.83 1009.71 1009.59 1009.51 1009.43 1009.39 1009.43
1020.67 1020.19 1019.71 1019.23 1018.79 1018.31 1017.87 1017.43 1016.99 1016.55 1016.11 1015.63 1015.19 1014.79 1014.39 1014.07 1013.71 1013.39 1013.03 1012.75 1012.47 1012.15 1011.83 1011.47 1011.15 1010.79 1010.43 1010.15 1009.91 1009.71 1009.67 1009.67 1009.63 1009.59 1009.51 1009.39 1009.31 1009.23 1009.19 1009.11 1009.07 1009.07
1020.71 1020.23 1019.71 1019.15 1018.67 1018.19 1017.71 1017.23 1016.79 1016.31 1015.79 1015.35 1014.95 1014.47 1014.03 1013.63 1013.23 1012.91 1012.51 1012.15 1011.91 1011.59 1011.23 1010.91 1010.55 1010.11 1009.79 1009.43 1009.19 1009.03 1008.95 1008.95 1008.95 1008.87 1008.95 1008.91 1008.87 1008.79 1008.79 1008.79 1008.79 1008.83
1020.71 1020.19 1019.67 1019.11 1018.59 1018.07 1017.59 1017.07 1016.63 1016.11 1015.59 1015.11 1014.55 1014.03 1013.67 1013.27 1012.87 1012.51 1012.03 1011.71 1011.39 1011.07 1010.67 1010.27 1009.95 1009.51 1009.15 1008.79 1008.55 1008.35 1008.27 1008.27 1008.31 1008.31 1008.31 1008.31 1008.31 1008.31 1008.31 1008.35 1008.39 1008.51
1020.71 1020.15 1019.59 1019.03 1018.47 1017.95 1017.43 1016.91 1016.43 1015.83 1015.27 1014.75 1014.31 1013.87 1013.43 1012.95 1012.47 1012.07 1011.59 1011.23 1010.83 1010.51 1010.15 1009.79 1009.35 1008.79 1008.39 1008.03 1007.83 1007.63 1007.51 1007.51 1007.55 1007.67 1007.71 1007.67 1007.71 1007.75 1007.79 1007.79 1007.83 1007.91
1020.75 1020.19 1019.59 1018.99 1018.43 1017.83 1017.35 1016.75 1016.15 1015.63 1015.03 1014.43 1013.99 1013.47 1012.99 1012.55 1012.07 1011.67 1011.23 1010.75 1010.35 1010.07 1009.71 1009.23 1008.67 1008.11 1007.67 1007.27 1007.03 1006.83 1006.63 1006.67 1006.71 1006.83 1006.91 1006.99 1007.07 1007.15 1007.19 1007.23 1007.27 1007.35
1020.79 1020.19 1019.59 1018.99 1018.47 1017.87 1017.27 1016.63 1015.99 1015.35 1014.79 1014.27 1013.79 1013.23 1012.71 1012.23 1011.79 1011.31 1010.87 1010.43 1009.91 1009.47 1009.23 1008.71 1008.07 1007.55 1007.07 1006.55 1006.03 1005.55 1005.39 1005.55 1005.67 1005.83 1005.99 1006.19 1006.31 1006.39 1006.47 1006.51 1006.55 1006.59
1020.75 1020.23 1019.71 1019.07 1018.43 1017.83 1017.19 1016.55 1015.95 1015.31 1014.71 1014.15 1013.79 1013.15 1012.59 1012.11 1011.63 1011.03 1010.43 1009.99 1009.51 1008.95 1008.47 1007.99 1007.35 1006.91 1006.47 1006.11 1005.59 1005.07 1004.71 1004.71 1004.79 1004.91 1005.15 1005.39 1005.59 1005.71 1005.79 1005.83 1005.87 1005.99
1020.79 1020.19 1019.67 1019.07 1018.39 1017.75 1017.15 1016.51 1015.83 1015.23 1014.55 1013.99 1013.51 1012.99 1012.47 1011.91 1011.43 1011.03 1010.35 1009.75 1009.35 1008.95 1008.35 1007.87 1007.39 1006.83 1006.39 1006.03 1005.59 1005.19 1004.91 1004.75 1004.71 1004.83 1004.83 1005.03 1005.15 1005.27 1005.35 1005.35 1005.43 1005.51
1020.79 1020.11 1019.51 1018.99 1018.35 1017.63 1017.03 1016.43 1015.79 1015.11 1014.47 1013.91 1013.27 1012.87 1012.35 1011.79 1011.35 1010.95 1010.51 1009.79 1009.19 1008.79 1008.31 1007.83 1007.47 1006.95 1006.55 1006.07 1005.63 1005.35 1005.07 1004.95 1004.91 1004.91 1004.99 1005.07 1005.19 1005.23 1005.31 1005.39 1005.43 1005.47
Thickness
5108 5108 5111 5113 5116 5118 5121 5125 5128 5131 5133 5135 5137 5140 5141 5143 5144 5146 5149 5152 5154 5156 5157 5159 5161 5164 5166 5169 5172 5176 5182 5188 5195 5203 5209 5216 5224 5232 5240 5250 5260 5269
5103 5104 5108 5111 5114 5116 5118 5120 5123 5125 5128 5131 5133 5136 5138 5140 5142 5145 5148 5150 5152 5154 5156 5158 5160 5163 5166 5169 5171 5175 5179 5185 5191 5197 5201 5207 5214 5221 5227 5236 5246 5255
5101 5104 5107 5109 5111 5113 5114 5116 5118 5122 5125 5128 5131 5134 5136 5139 5142 5144 5146 5148 5150 5152 5155 5158 5161 5163 5166 5169 5171 5175 5179 5183 5188 5192 5195 5200 5206 5211 5219 5227 5235 5243
5101 5104 5105 5105 5107 5108 5110 5113 5116 5119 5122 5125 5128 5131 5133 5136 5138 5141 5143 5145 5148 5151 5154 5157 5159 5162 5165 5169 5172 5176 5180 5184 5187 5189 5192 5198 5202 5207 5214 5221 5227 5234
5102 5103 5104 5103 5104 5106 5107 5110 5114 5116 5118 5121 5124 5126 5129 5131 5133 5136 5139 5141 5144 5148 5152 5154 5157 5161 5164 5168 5173 5177 5182 5185 5188 5189 5192 5197 5201 5206 5212 5216 5221 5226
5100 5101 5100 5101 5101 5102 5105 5107 5110 5112 5114 5117 5120 5122 5125 5127 5130 5133 5136 5139 5143 5146 5150 5152 5156 5160 5163 5169 5174 5178 5184 5187 5188 5190 5193 5198 5201 5205 5209 5212 5216 5221
5095 5095 5096 5097 5098 5099 5101 5104 5106 5108 5111 5113 5116 5119 5122 5125 5129 5132 5135 5138 5142 5145 5149 5152 5155 5159 5164 5169 5173 5178 5183 5187 5189 5191 5194 5198 5200 5203 5207 5210 5214 5218
5090 5091 5091 5092 5094 5094 5096 5099 5101 5104 5107 5110 5113 5116 5120 5123 5128 5132 5134 5137 5141 5144 5148 5152 5156 5160 5164 5168 5171 5174 5180 5185 5189 5192 5194 5197 5199 5202 5205 5208 5212 5216
5085 5086 5087 5087 5089 5090 5092 5094 5097 5100 5103 5107 5111 5114 5118 5123 5127 5131 5134 5138 5141 5145 5150 5154 5158 5161 5163 5166 5169 5172 5176 5181 5186 5192 5195 5197 5199 5202 5205 5207 5210 5214
5082 5082 5082 5083 5084 5086 5088 5090 5093 5096 5099 5103 5108 5112 5117 5122 5126 5130 5132 5136 5141 5147 5152 5154 5156 5159 5161 5163 5166 5170 5173 5177 5182 5188 5194 5198 5200 5202 5204 5207 5210 5212
5078 5078 5078 5079 5080 5082 5084 5087 5090 5093 5097 5101 5106 5110 5115 5120 5123 5127 5130 5134 5140 5144 5148 5151 5153 5155 5158 5161 5165 5168 5172 5175 5179 5184 5190 5196 5200 5202 5204 5206 5209 5211
5075 5074 5075 5075 5076 5078 5082 5084 5088 5092 5095 5100 5104 5109 5114 5118 5122 5127 5130 5134 5138 5142 5145 5148 5150 5154 5156 5160 5164 5167 5171 5174 5178 5182 5187 5193 5198 5201 5203 5205 5207 5209
5072 5072 5072 5073 5074 5076 5079 5083 5087 5091 5094 5099 5104 5109 5114 5118 5123 5127 5131 5135 5138 5141 5145 5148 5151 5153 5156 5160 5163 5166 5170 5173 5176 5180 5185 5190 5194 5198 5201 5202 5204 5207
5071 5071 5070 5072 5073 5075 5078 5082 5086 5090 5094 5099 5105 5110 5115 5119 5124 5128 5132 5136 5139 5143 5147 5149 5152 5154 5157 5160 5162 5165 5168 5171 5175 5179 5183 5187 5192 5195 5198 5200 5202 5204
5071 5071 5071 5072 5074 5076 5079 5082 5086 5091 5096 5101 5106 5111 5117 5121 5125 5130 5133 5138 5142 5145 5148 5150 5153 5155 5158 5160 5163 5165 5167 5170 5174 5178 5181 5185 5190 5193 5196 5197 5200 5202
5073 5072 5073 5074 5076 5078 5081 5085 5089 5093 5098 5104 5109 5114 5118 5123 5128 5132 5136 5139 5143 5146 5149 5152 5155 5157 5159 5163 5166 5168 5169 5171 5175 5178 5182 5185 5188 5192 5194 5196 5199 5201
5075 5076 5076 5077 5079 5082 5085 5088 5092 5097 5102 5107 5112 5116 5121 5126 5130 5134 5138 5141 5145 5149 5152 5155 5157 5160 5163 5166 5169 5171 5172 5174 5176 5179 5182 5185 5188 5191 5193 5196 5198 5200
5077 5079 5080 5082 5084 5086 5090 5093 5097 5101 5106 5110 5115 5120 5124 5129 5133 5137 5141 5144 5147 5151 5154 5157 5160 5163 5166 5169 5171 5173 5175 5176 5178 5180 5183 5185 5188 5191 5193 5196 5197 5199
5079 5081 5083 5085 5088 5090 5094 5097 5101 5105 5109 5114 5119 5123 5127 5132 5135 5139 5143 5146 5149 5153 5156 5159 5163 5165 5168 5171 5174 5176 5178 5179 5180 5182 5184 5186 5188 5191 5193 5195 5196 5198
5082 5084 5086 5089 5092 5095 5098 5101 5104 5109 5113 5117 5122 5126 5130 5134 5138 5141 5145 5149 5151 5155 5158 5161 5164 5168 5171 5174 5176 5179 5181 5182 5183 5184 5185 5187 5189 5191 5193 5195 5196 5198
5085 5087 5090 5092 5095 5098 5101 5105 5109 5113 5117 5121 5125 5129 5133 5136 5140 5143 5147 5151 5154 5157 5160 5163 5166 5171 5174 5176 5179 5181 5183 5185 5186 5186 5187 5189 5191 5192 5194 5196 5197 5198
5087 5089 5092 5095 5098 5102 5105 5109 5113 5116 5121 5125 5128 5132 5135 5138 5142 5146 5149 5153 5156 5158 5161 5164 5169 5173 5176 5180 5182 5185 5187 5189 5189 5190 5191 5191 5193 5194 5196 5197 5198 5199
5089 5092 5095 5098 5102 5104 5108 5112 5115 5119 5123 5127 5130 5134 5137 5141 5144 5147 5151 5154 5157 5161 5163 5167 5172 5175 5179 5183 5187 5190 5193 5194 5194 5195 5194 5194 5195 5196 5197 5199 5201 5202
5092 5094 5097 5101 5104 5108 5111 5115 5118 5122 5126 5129 5132 5136 5139 5143 5146 5149 5153 5156 5159 5162 5165 5169 5173 5177 5180 5184 5188 5192 5196 5196 5197 5197 5197 5197 5197 5198 5199 5201 5203 5204
5095 5098 5100 5103 5107 5110 5114 5117 5121 5125 5128 5132 5135 5138 5141 5144 5147 5150 5154 5157 5160 5163 5166 5169 5173 5176 5180 5183 5186 5190 5192 5194 5195 5196 5196 5197 5197 5198 5199 5200 5202 5203
5097 5101 5104 5106 5109 5113 5116 5120 5123 5127 5130 5134 5137 5140 5143 5146 5148 5150 5153 5157 5161 5163 5166 5169 5171 5174 5178 5181 5184 5187 5190 5191 5193 5193 5194 5194 5195 5196 5197 5198 5199 5201